Find Starlink 33572

NORAD ID: 62767 Int'l Des: 2025-015 Owner: SPXS Country: US Constellation: starlink operational
LEOCIRCULAR

現在のビュー

3D地球を読み込み中...

Starlink 33572について

説明を読み込み中...

次回通過

Passes for default location (London). Set your location on the main map for personalized predictions.

高度履歴

Loading altitude history...

軌道要素

1 62767U 25015K 26150.39005214 .00036674 00000-0 10912-2 0 9990
2 62767 53.1599 302.6980 0000746 133.7068 226.3997 15.34401600 76932
Epoch: May 30, 2026 • Age: 14 hours

現在のステータス

高度 479.3 km
速度 7.63 km/s
衛星直下点 -48.21°S, 56.11°W
打ち上げ日 Jan 21, 2025
運用期間 1.3 years
タイプ internet

技術仕様

分類 Payload
質量 575.00 kg
乾燥質量 530.00 kg
総質量 575.00 kg
長さ 0.30 m
直径 4.10 m
スパン 29.00 m
形状 Box + pan
製造者 SPXS
バスタイプ Starlink V2MO
フェーズステータス In Orbit
所有者/国 SPXS/US

Most Searched